[[{"header":{"parameterUnit":"m.s-1","parameterCategory":1,"la1":30.2991,"la2":30.254,"lo1":-89.0895,"lo2":-89.0444,"dy":0.0017,"dx":0.0017,"nx":28,"ny":28,"refTime":"2025-04-03T03:00:00:Z","depth":0,"parameterNumber":2,"parameterNumberName":"U-component_of_WINDS"},"data":[0,0,0,0,0,0,0,0,0,0,0,0,0,0,0,0,0,0,0,0,0,0,0,0,0,0,0,0,0,0,0,0,0,0,0,0,0,0,0,0,0,0,0,0,0,0,0,0,0,0,0,0,0,0,0,0,0,0,-3.6366,-3.6367,0,-3.6524,-3.6526,-3.6528,-3.656,-3.6559,-3.6558,-3.6557,-3.6721,-3.6727,-3.6732,0,0,0,0,0,0,0,0,0,0,0,0,0,-3.6094,-3.6099,-3.6365,-3.6367,-3.6369,-3.6524,-3.6526,-3.6528,-3.6561,-3.6559,-3.6558,-3.6556,-3.6719,-3.6726,-3.6732,0,0,0,0,0,0,0,0,0,0,0,0,0,-3.6228,-3.61,-3.6365,-3.6404,-3.6409,-3.6523,-3.6526,-3.6529,-3.6561,-3.6559,-3.6557,-3.6556,-3.6717,-3.6725,-3.6733,-3.682,0,0,-3.6759,-3.6762,0,0,0,0,0,0,0,0,-3.622,-3.6238,-3.6396,-3.6402,-3.6407,-3.652,-3.649,-3.6627,-3.6561,-3.6503,-3.6557,-3.6555,-3.6656,-3.6669,-3.6703,-3.6828,-3.6835,-3.6759,-3.6764,-3.6768,-3.677,0,0,0,0,0,0,0,-3.6211,-3.6231,-3.6428,-3.6399,-3.6405,-3.6415,-3.6432,-3.6516,-3.6588,-3.6508,-3.6511,-3.6529,-3.6659,-3.6695,-3.6707,-3.6838,-3.6759,-3.6766,-3.6771,-3.6775,-3.7043,-3.7045,0,0,0,0,0,0,-3.6194,-3.6223,-3.6423,-3.6433,-3.6308,-3.6421,-3.644,-3.6486,-3.6587,-3.6601,-3.6531,-3.653,-3.6682,-3.6697,-3.6713,-3.6822,-3.6768,-3.6775,-3.678,-3.7041,-3.7044,-3.7046,0,0,0,0,0,0,-3.6189,-3.6212,-3.6417,-3.6329,-3.6356,-3.6428,-3.6479,-3.649,-3.6526,-3.6604,-3.6617,-3.6554,-3.6681,-3.6701,-3.6794,-3.6828,-3.6779,-3.6787,-3.7039,-3.7042,-3.7045,-3.7039,0,0,0,0,0,0,-3.6181,-3.621,-3.6242,-3.6329,-3.636,-3.6494,-3.6481,-3.6495,-3.654,-3.6541,-3.663,-3.6642,-3.6681,-3.6781,-3.6802,-3.6838,-3.6793,-3.7036,-3.704,-3.7044,-3.7037,-3.7042,-3.7046,0,0,0,0,0,-3.6171,-3.6235,-3.6244,-3.6268,-3.6403,-3.6495,-3.6513,-3.6556,-3.6543,-3.6577,-3.6627,-3.664,-3.6821,-3.679,-3.6814,-3.6853,-3.7034,-3.7039,-3.7044,-3.7034,-3.7041,-3.7046,0,0,0,0,0,0,-3.615,-3.6247,-3.6258,-3.6352,-3.6415,-3.6501,-3.6545,-3.6561,-3.663,-3.6628,-3.6678,-3.6698,-3.6787,-3.683,-3.6794,-3.6943,-3.6927,-3.6937,-3.6912,-3.6919,-3.6923,-3.6911,-3.68,0,0,0,0,0,-3.6157,-3.6223,-3.6304,-3.638,-3.6411,-3.6472,-3.6514,-3.6542,-3.661,-3.6637,-3.6693,-3.6759,-3.6831,-3.6878,-3.6948,-3.7044,-3.7064,-3.7083,-3.7087,-3.7091,-3.7099,-3.7153,-3.7162,-3.7062,-3.7062,-3.7062,0,0,-3.6171,-3.6232,-3.6271,-3.6377,-3.6429,-3.6498,-3.6495,-3.6567,-3.6618,-3.6648,-3.6738,-3.6782,-3.686,-3.6954,-3.6998,-3.6992,-3.7131,-3.7097,-3.71,-3.7105,-3.7159,-3.7168,-3.7176,-3.7066,-3.7065,-3.7064,0,0,-3.6231,-3.6284,-3.6352,-3.6405,-3.6484,-3.6525,-3.6541,-3.6625,-3.6655,-3.6746,-3.677,-3.6833,-3.6955,-3.701,-3.7053,-3.7136,-3.715,-3.7157,-3.7182,-3.7234,-3.7242,-3.7249,-3.7279,-3.7288,-3.7165,-3.7165,-3.7165,0,-3.6238,-3.6341,-3.6385,-3.6457,-3.6503,-3.6533,-3.6603,-3.6653,-3.6751,-3.6783,-3.6774,-3.693,-3.6984,-3.7091,-3.7111,-3.7146,-3.7167,-3.7147,-3.7237,-3.7245,-3.7253,-3.7281,-3.7292,-3.7165,-3.7165,-3.7165,-3.7165,0,-3.6346,-3.6418,-3.6464,-3.6557,-3.6609,-3.668,-3.6735,-3.6783,-3.6807,-3.6849,-3.6942,-3.7008,-3.7093,-3.7121,-3.7145,-3.7232,-3.7226,-3.7227,-3.7211,-3.7262,-3.7289,-3.73,-3.7166,-3.7166,-3.7166,-3.7165,0,0,-3.6396,-3.6514,-3.653,-3.6573,-3.6663,-3.672,-3.6793,-3.6875,-3.6914,-3.6982,-3.7044,-3.7148,-3.715,-3.72,-3.723,-3.7276,-3.7337,-3.7272,-3.7275,-3.7281,-3.7438,-3.7436,-3.7447,-3.7348,-3.735,-3.7352,-3.7431,0,-3.6467,-3.6596,-3.6638,-3.6746,-3.6813,-3.6843,-3.6907,-3.6969,-3.7011,-3.7075,-3.7122,-3.7194,-3.7191,-3.7222,-3.7269,-3.732,-3.7369,-3.7315,-3.7407,-3.741,-3.7385,-3.7462,-3.746,-3.7531,-3.7442,-3.7444,-3.7446,0,-3.6565,-3.6634,-3.6747,-3.683,-3.686,-3.6915,-3.6995,-3.7055,-3.7128,-3.7155,-3.7211,-3.7238,-3.7316,-3.7297,-3.7406,-3.7368,-3.7409,-3.744,-3.7444,-3.7453,-3.7429,-3.7472,-3.7555,-3.7565,-3.7463,-3.7462,-3.7461,0,-3.6589,-3.671,-3.6794,-3.683,-3.6928,-3.6967,-3.701,-3.7081,-3.7128,-3.7198,-3.7229,-3.7307,-3.735,-3.7411,-3.7459,-3.7441,-3.7564,-3.7549,-3.7589,-3.7588,-3.7612,-3.761,-3.7701,-3.764,-3.764,-3.764,-3.764,0,-3.6663,-3.6731,-3.6806,-3.6857,-3.6936,-3.6985,-3.7061,-3.7106,-3.7169,-3.7231,-3.7263,-3.732,-3.7381,-3.7447,-3.7485,-3.757,-3.7589,-3.7614,-3.7623,-3.761,-3.7607,-3.7636,-3.7632,-3.7643,-3.7642,-3.7642,-3.7641,0,-3.6702,-3.6755,-3.6848,-3.6934,-3.6957,-3.7011,-3.7085,-3.7137,-3.718,-3.7258,-3.7279,-3.7348,-3.7427,-3.7482,-3.7584,-3.761,-3.7701,-3.771,-3.7676,-3.768,-3.7717,-3.7713,-3.783,-3.7848,-3.7775,-3.7776,-3.7776,0,-3.6745,-3.6798,-3.6889,-3.6932,-3.6975,-3.7044,-3.7093,-3.7144,-3.7193,-3.728,-3.7322,-3.7403,-3.747,-3.7596,-3.7656,-3.7734,-3.7745,-3.7781,-3.7757,-3.7742,-3.7744,-3.774,-3.7746,-3.7784,-3.7784,-3.7784,-3.7785,0,-3.6815,-3.6838,-3.6906,-3.6983,-3.7039,-3.7103,-3.7167,-3.7201,-3.7264,-3.7317,-3.7398,-3.7451,-3.7555,-3.7635,-3.7719,-3.7765,-3.7786,-3.7792,-3.7806,-3.7792,-3.777,-3.7782,-3.7685,-3.7789,-3.7788,-3.7788,-3.7788,-3.7788,-3.6857,-3.6906,-3.6977,-3.7052,-3.7105,-3.7165,-3.7217,-3.7268,-3.7336,-3.7424,-3.7451,-3.7535,-3.7608,-3.7723,-3.777,-3.7837,-3.7834,-3.7854,-3.7859,-3.7862,-3.7862,-3.776,-3.7853,-3.7853,-3.7853,-3.7853,-3.7853,0,-3.6928,-3.6976,-3.7044,-3.7132,-3.7191,-3.7205,-3.7277,-3.7325,-3.7398,-3.7464,-3.753,-3.7624,-3.7702,-3.7769,-3.785,-3.7891,-3.7903,-3.7911,-3.7908,-3.7918,-3.786,-3.784,-3.79,-3.79,-3.79,-3.79,-3.79,-3.79,-3.6971,-3.7055,-3.7087,-3.7198,-3.7246,-3.7328,-3.7368,-3.7423,-3.7475,-3.7578,-3.7643,-3.7686,-3.7752,-3.7839,-3.7912,-3.793,-3.7958,-3.7964,-3.7983,-3.7928,-3.7922,-3.7917,-3.7898,-3.797,-3.797,-3.8036,-3.8037,-3.8037]},{"header":{"parameterUnit":"m.s-1","parameterCategory":1,"la1":30.2991,"la2":30.254,"lo1":-89.0895,"lo2":-89.0444,"dy":0.0017,"dx":0.0017,"nx":28,"ny":28,"refTime":"2025-04-03T03:00:00:Z","depth":0,"parameterNumber":3,"parameterNumberName":"V-component_of_WINDS"},"data":[0,0,0,0,0,0,0,0,0,0,0,0,0,0,0,0,0,0,0,0,0,0,0,0,0,0,0,0,0,0,0,0,0,0,0,0,0,0,0,0,0,0,0,0,0,0,0,0,0,0,0,0,0,0,0,0,0,0,4.4826,4.4826,0,4.4832,4.4832,4.4832,4.4819,4.4819,4.4818,4.4818,4.4822,4.4822,4.4823,0,0,0,0,0,0,0,0,0,0,0,0,0,4.4803,4.4804,4.4826,4.4826,4.4826,4.4832,4.4832,4.4832,4.4819,4.4818,4.4818,4.4818,4.4821,4.4822,4.4823,0,0,0,0,0,0,0,0,0,0,0,0,0,4.4811,4.4804,4.4826,4.482,4.482,4.4832,4.4832,4.4832,4.4819,4.4818,4.4818,4.4817,4.4821,4.4822,4.4823,4.484,0,0,4.4825,4.4825,0,0,0,0,0,0,0,0,4.4811,4.4812,4.4821,4.4821,4.482,4.4824,4.4825,4.4835,4.4819,4.4819,4.4818,4.4817,4.4823,4.4823,4.4826,4.484,4.484,4.4825,4.4825,4.4826,4.4826,0,0,0,0,0,0,0,4.481,4.4812,4.4828,4.4821,4.4821,4.4818,4.4818,4.4827,4.4824,4.4819,4.4818,4.4819,4.4822,4.4825,4.4826,4.484,4.4825,4.4826,4.4826,4.4826,4.4872,4.4873,0,0,0,0,0,0,4.4811,4.4812,4.4828,4.4828,4.4814,4.4819,4.4819,4.4823,4.4824,4.4824,4.482,4.4819,4.4824,4.4825,4.4826,4.4848,4.4826,4.4826,4.4827,4.4871,4.4872,4.4873,0,0,0,0,0,0,4.481,4.4812,4.4828,4.482,4.4822,4.482,4.4825,4.4824,4.4827,4.4825,4.4824,4.4823,4.4824,4.4825,4.4837,4.4848,4.4827,4.4827,4.4871,4.4872,4.4873,4.4892,0,0,0,0,0,0,4.481,4.4812,4.4818,4.482,4.4822,4.4839,4.4825,4.4824,4.4828,4.4827,4.4828,4.4827,4.4823,4.4836,4.4838,4.4849,4.4828,4.487,4.4871,4.4872,4.489,4.4894,4.4896,0,0,0,0,0,4.4809,4.4822,4.4819,4.4821,4.483,4.484,4.4841,4.4837,4.4829,4.4836,4.4835,4.4827,4.4847,4.4838,4.484,4.4851,4.4869,4.4871,4.4872,4.4889,4.4893,4.4896,0,0,0,0,0,0,4.482,4.4822,4.4818,4.4832,4.4836,4.4838,4.4845,4.4841,4.4846,4.4844,4.4838,4.4838,4.4853,4.4853,4.4843,4.4869,4.4857,4.4859,4.4869,4.4872,4.4875,4.4875,4.4829,0,0,0,0,0,4.4824,4.4833,4.4834,4.4846,4.4849,4.4847,4.4851,4.4848,4.4851,4.4852,4.4852,4.4856,4.4863,4.4867,4.4873,4.489,4.4892,4.4899,4.4902,4.4905,4.4907,4.4919,4.4923,4.4879,4.4879,4.4879,0,0,4.4833,4.4835,4.484,4.4849,4.4851,4.4861,4.4848,4.4857,4.4865,4.4853,4.4866,4.4867,4.487,4.4886,4.4892,4.4886,4.492,4.4907,4.4909,4.491,4.4921,4.4925,4.4929,4.488,4.488,4.488,0,0,4.4853,4.4855,4.4867,4.4871,4.4876,4.4875,4.4879,4.4881,4.4882,4.4895,4.4888,4.4896,4.4908,4.4911,4.4915,4.4941,4.4935,4.4943,4.4959,4.4971,4.4974,4.4977,4.4989,4.4993,4.4945,4.4945,4.4945,0,4.4863,4.4877,4.4874,4.4885,4.489,4.4883,4.4896,4.4899,4.4905,4.4909,4.4902,4.4919,4.492,4.4938,4.4945,4.4947,4.4952,4.4943,4.4974,4.4977,4.498,4.4991,4.4995,4.4946,4.4946,4.4946,4.4946,0,4.489,4.49,4.4909,4.4918,4.4924,4.4936,4.4935,4.4942,4.4939,4.4939,4.4954,4.4956,4.4964,4.4968,4.4964,4.4986,4.4983,4.4975,4.4962,4.4985,4.4996,4.5,4.4948,4.4947,4.4947,4.4947,0,0,4.4915,4.4925,4.4929,4.4934,4.4941,4.4948,4.4961,4.497,4.4977,4.4982,4.4994,4.5006,4.5,4.5004,4.5001,4.5011,4.5035,4.5002,4.5002,4.501,4.5062,4.5069,4.5074,4.5031,4.5032,4.5032,4.5063,0,4.4937,4.496,4.496,4.4981,4.4992,4.4986,4.4998,4.5004,4.5005,4.5015,4.5016,4.5025,4.5016,4.5019,4.5028,4.503,4.5045,4.5027,4.5042,4.5043,4.5043,4.5079,4.5085,4.5114,4.5066,4.5067,4.5067,0,4.4965,4.4975,4.4998,4.5006,4.5011,4.5021,4.5031,4.504,4.5047,4.5048,4.5055,4.5051,4.5065,4.5052,4.5072,4.506,4.5066,4.5068,4.5069,4.5071,4.5057,4.5083,4.5122,4.5127,4.5073,4.5073,4.5072,0,4.4984,4.5002,4.5019,4.5023,4.5033,4.5041,4.5045,4.5052,4.5059,4.5068,4.5073,4.5083,4.5089,4.5097,4.5097,4.5087,4.5118,4.5104,4.512,4.512,4.5127,4.5126,4.5169,4.5129,4.5129,4.5128,4.5128,0,4.5009,4.5024,4.5028,4.5039,4.5056,4.5056,4.5073,4.5076,4.5083,4.5095,4.509,4.5102,4.51,4.5112,4.5111,4.513,4.5131,4.5133,4.5133,4.5134,4.5134,4.5139,4.5137,4.513,4.5129,4.5129,4.5129,0,4.5032,4.5036,4.5054,4.5064,4.5066,4.5079,4.5087,4.5098,4.51,4.5115,4.5119,4.5122,4.5136,4.5137,4.5152,4.5152,4.5175,4.5172,4.5173,4.5173,4.5189,4.5188,4.5237,4.5244,4.5198,4.5198,4.5198,0,4.5048,4.506,4.5072,4.5081,4.5086,4.5099,4.5107,4.5108,4.5117,4.5129,4.5138,4.5152,4.5163,4.5185,4.5189,4.5202,4.52,4.5216,4.5201,4.5203,4.5202,4.5202,4.5205,4.5219,4.5219,4.522,4.522,0,4.5077,4.508,4.5092,4.5106,4.5117,4.5127,4.5137,4.5144,4.5147,4.5157,4.5172,4.5181,4.5199,4.5213,4.5226,4.523,4.5227,4.5225,4.523,4.5231,4.5233,4.5234,4.5182,4.5224,4.5223,4.5223,4.5223,4.5223,4.5098,4.511,4.5122,4.5136,4.5145,4.5155,4.5167,4.5173,4.5186,4.5201,4.5201,4.5218,4.5228,4.5246,4.5252,4.5265,4.526,4.5266,4.5268,4.5269,4.5272,4.523,4.5267,4.5267,4.5267,4.5267,4.5267,0,4.5129,4.5137,4.5151,4.5167,4.5179,4.5176,4.5188,4.5199,4.5215,4.5225,4.5237,4.5256,4.5271,4.5278,4.5293,4.5303,4.5302,4.5307,4.5306,4.5308,4.5275,4.5271,4.5308,4.5308,4.5308,4.5308,4.5308,4.5308,4.5146,4.5167,4.5171,4.5197,4.5204,4.5223,4.523,4.5241,4.5249,4.5272,4.5285,4.529,4.5299,4.5316,4.533,4.5331,4.5338,4.5344,4.5345,4.5314,4.531,4.5306,4.5302,4.5345,4.5345,4.5377,4.5378,4.5378]}]]